Edna St. Vincent Millay

(22 February 1892 – 19 October 1950 / Rockland / Maine / United States)

Stats

» Click to list general statistics » OR, select a date :

General Statistics

Visitors of the poet

Number of visitors of the poet’s mainpage in PoemHunter.Com

Attention : Numbers in this table does not indicate the total hits of poems of the poet, but indicates the hits of the poet’s main page.

Date Hits
06/25/2016 Saturday 451
75%
06/24/2016 Friday 488
81%
06/23/2016 Thursday 397
66%
06/22/2016 Wednesday 354
59%
06/21/2016 Tuesday 415
69%
06/20/2016 Monday 448
75%
06/19/2016 Sunday 398
66%
06/18/2016 Saturday 473
79%
06/17/2016 Friday 428
71%
06/16/2016 Thursday 502
84%
06/15/2016 Wednesday 486
81%
06/14/2016 Tuesday 444
74%
06/13/2016 Monday 480
80%
06/12/2016 Sunday 453
76%
06/11/2016 Saturday 440
73%
06/10/2016 Friday 425
71%
06/09/2016 Thursday 375
62%
06/08/2016 Wednesday 554
92%
06/07/2016 Tuesday 548
91%
06/06/2016 Monday 596
100%

Reader rating & num.of MyPoemList’s

Click the captions of columns to change the order.

# Poem Title Submit Date Reader Rating Num.of MyPoemList’s
Rating Num.R.
1 Weeds 01/13/2003 8.0 1 8
2 I Know 100 Ways To Die 07/07/2003 7.8 4 28
3 Grown-Up 01/01/2004 6.3 26 31
4 Journey 01/13/2003 6.3 27 17
5 Renascence 01/04/2003 7.0 31 61
6 We Talk Of Taxes... 01/01/2004 6.2 28 4
7 I, Being Born A Woman And Distressed 01/01/2004 6.7 33 54
8 Elegy Before Death 01/13/2003 6.1 31 14
9 Wraith 01/13/2003 5.7 30 12
10 The Penitent 01/13/2003 5.6 30 11
11 Humoresque 01/01/2004 5.6 30 16
12 Two Sonnets In Memory 01/13/2003 5.9 32 6
13 Memorial To D.C. 01/13/2003 5.8 32 2
14 Intention To Escape From Him 01/13/2003 6.3 35 21
15 Eel-Grass 01/13/2003 6.0 33 11
16 Wild Swans 01/13/2003 6.1 34 14
17 Fontaine, Je Ne Boirai Pas De Ton Eau! 01/13/2003 5.5 31 8
18 Sonnets 05: Once More Into My Arid Days Like Dew 01/13/2003 5.7 32 8
19 If Still Your Orchards Bear 01/13/2003 5.8 33 7
20 Indifference 01/13/2003 5.8 33 11
21 Ode To Silence 01/13/2003 5.9 34 15
22 The Blue Flag In The Bog 01/01/2004 5.9 34 4
23 Justice Denied In Massachusetts 01/13/2003 5.9 34 8
24 Interim 01/13/2003 6.1 36 14
25 Portrait By A Neighbour 01/13/2003 5.9 35 9
26 Menses 01/13/2003 5.6 33 6
27 Sonnets 04: Only Until This Cigarette Is Ended 01/13/2003 5.9 35 12
28 Underground System 01/13/2003 5.9 35 3
29 Oh, My Belovèd, Have You Thought Of This 01/01/2004 6.0 36 13
30 Oh, Oh, You Will Be Sorry 01/13/2003 6.5 39 34
31 Pity Me Not Because The Light Of Day 01/13/2003 6.3 38 32
32 Midnight Oil 01/13/2003 6.0 36 12
33 Prayer To Persephone 01/13/2003 5.5 33 18
34 Lines For A Grave-Stone 01/01/2004 6.1 37 8
35 When I Too Long Have Looked Upon Your Face 01/01/2004 6.4 39 32
36 When We Are Old And These Rejoicing Veins 01/13/2003 5.7 35 14
37 Kin To Sorrow 01/13/2003 5.5 34 21
38 Lament 01/13/2003 6.5 40 26
39 Modern Declaration 01/13/2003 5.6 35 9
40 If I Should Learn, In Some Quite Casual Way 01/01/2004 6.4 40 36
41 Epitaph 01/13/2003 6.1 38 17
42 I Know I Am But Summer To Your Heart 01/13/2003 6.5 41 48
43 The Little Ghost 01/13/2003 6.1 38 16
44 Night Is My Sister, And How Deep In Love 01/13/2003 5.8 37 27
45 Three Songs Of Shattering 01/13/2003 5.9 38 9
46 Not In A Silver Casket Cool With Pearls 01/13/2003 5.9 38 20
47 The Poet And His Book 01/13/2003 6.2 40 11
48 Inland 01/13/2003 5.5 36 8
49 No Rose That In A Garden Ever Grew 01/01/2004 5.5 36 12
50 Invocation To The Muses 01/13/2003 5.8 38 4
51 My Most Distinguished Guest And Learned Friend 01/13/2003 5.5 36 9
52 Only Until This Cigarette Is Ended 01/01/2004 5.5 36 45
53 Not Even My Pride Shall Suffer Much 01/13/2003 5.7 38 9
54 Mist In The Valley 01/13/2003 6.2 41 18
55 When The Year Grows Old 01/04/2003 5.7 38 17
56 The Betrothal 01/01/2004 5.7 38 14
57 Make Bright The Arrows 01/13/2003 5.7 38 4
58 Exiled 01/13/2003 6.5 44 22
59 Recuerdo 01/01/2004 6.5 44 20
60 Travel 01/13/2003 6.0 41 17
61 Pastoral 01/13/2003 5.1 35 5
62 I Shall Go Back 01/01/2004 5.5 39 26
63 Witch-Wife 01/13/2003 5.5 40 26
64 To A Poet That Died Young 01/13/2003 5.8 43 7
65 Sonnet Iii: Mindful Of You The Sodden Earth 01/01/2004 5.6 42 5
66 Sonnets 06: No Rose That In A Garden Ever Grew 01/13/2003 5.6 42 7
67 Scrub 01/13/2003 5.8 43 5
68 Sonnets 07: When I Too Long Have Looked Upon Your Face 01/13/2003 5.9 44 24
69 Sonnet (Women Have Loved Before As I Love Now) 01/13/2003 5.9 44 18
70 The Wood Road 01/13/2003 5.8 44 6
71 Sonnets 10: Oh, My Beloved, Have You Thought Of This 01/13/2003 5.9 45 6
72 The Singing-Woman From The Wood's Edge 01/13/2003 5.9 45 8
73 Sonnet Iv: Not In This Chamber 01/01/2004 5.5 42 4
74 I Do But Ask That You Be Always Fair 01/01/2004 5.5 42 29
75 Sonnet I: Thou Art Not Lovelier Than Lilacs 01/01/2004 5.6 43 12
76 Mariposa 01/13/2003 6.6 51 13
77 Spring 01/13/2003 6.2 48 22
78 Sonnet 03: Mindful Of You The Sodden Earth In Spring 01/13/2003 5.4 42 5
79 Sonnets 11: As To Some Lovely Temple, Tenantless 01/13/2003 5.7 44 3
80 To Those Without Pity 01/13/2003 5.2 40 10
81 Sonnet Ii: Time Does Not Bring Relief 01/01/2004 6.0 47 25
82 Sonnet 01: Thou Art Not Lovelier Than Lilacs,&Mdash;No 01/13/2003 5.8 45 15
83 Song Of A Second April 01/13/2003 6.0 47 9
84 Whereas At Morning In A Jeweled Crown 01/13/2003 5.5 43 7
85 Sonnet 04: Not In This Chamber Only At My Birth 01/13/2003 5.6 44 4
86 Lines Written In Recapitulation 01/13/2003 6.2 49 4
87 I Know The Face Of Falsehood And Her Tongue 01/13/2003 5.6 44 8
88 Passer Mortuus Est 01/13/2003 5.8 46 10
89 Second Fig 01/13/2003 6.0 48 27
90 Elegy 01/13/2003 5.3 42 8
91 The Philosopher 01/13/2003 5.6 45 23
92 The Plaid Dress 01/13/2003 5.8 46 10
93 Rosemary 01/13/2003 5.6 45 6
94 Sonnets From An Ungrafted Tree 01/13/2003 5.7 46 4
95 Euclid Alone 01/01/2004 5.7 46 16
96 Sweet Love, Sweet Thorn, When Lightly To My Heart 01/13/2003 5.6 46 18
97 Sonnet 05: If I Should Learn, In Some Quite Casual Way 01/13/2003 5.9 48 18
98 Sonnet 06: Bluebeard 01/13/2003 6.1 50 9
99 Souvenir 01/13/2003 5.6 46 11
100 Feast 01/13/2003 6.0 50 14
101 Sonnet Vi: This Door You Might Not Open 01/01/2004 5.9 49 12
102 The Unexplorer 01/13/2003 6.0 50 8
103 The Return From Town 01/13/2003 5.5 47 6
104 Tavern 01/13/2003 5.6 48 8
105 Sonnets 01: We Talk Of Taxes, And I Call You Friend 01/13/2003 5.4 48 9
106 Sonnets 08: And You As Well Must Die, Beloved Dust 01/13/2003 5.5 50 7
107 Sonnets 09: Let You Not Say Of Me When I Am Old 01/13/2003 5.6 51 9
108 Sonnet V: If I Should Learn 01/01/2004 5.4 49 4
109 The Fledgling 01/13/2003 5.4 49 2
110 The True Encounter 01/13/2003 5.9 55 6
111 Sorrow 01/13/2003 5.7 53 26
112 Sonnets (1923) 01/01/2004 5.3 49 6
113 The Little Hill 01/13/2003 5.8 54 7
114 Low-Tide 01/13/2003 4.8 45 14
115 Here Is A Wound That Never Will Heal, I Know 01/13/2003 6.0 57 58
116 Think Not, Not For A Moment Let Your Mind 01/13/2003 5.7 55 14
117 Sonnets 03: Not With Libations, But With Shouts And Laughter 01/13/2003 5.8 56 6
118 To The Not Impossible Him 01/13/2003 5.4 53 14
119 First Fig 01/13/2003 7.5 75 93
120 Sonnet 02: Time Does Not Bring Relief; You All Have Lied 01/13/2003 6.5 66 67
121 The Death Of Autumn 01/13/2003 5.9 60 10
122 The Leaf And The Tree 01/13/2003 5.9 60 17
123 The Ballad Of The Harp-Weaver 01/13/2003 5.9 61 29
124 The Bean-Stalk 01/13/2003 5.6 58 5
125 Sonnets 02: Into The Golden Vessel Of Great Song 01/13/2003 5.3 55 3
126 The Shroud 01/13/2003 5.5 57 5
127 To Kathleen 01/01/2004 5.6 58 4
128 To A Young Poet 01/01/2004 5.9 62 9
129 The Suicide 01/13/2003 5.5 58 19
130 The Dream 01/13/2003 5.8 62 27
131 Love Is Not All 01/13/2003 7.5 81 177
132 Sonnets 12: Cherish You Then The Hope I Shall Forget 01/13/2003 5.5 61 3
133 God's World 01/04/2003 6.1 70 38
134 The Fawn 01/13/2003 5.8 66 5
135 I Dreamed I Moved Among The Elysian Fields 01/13/2003 5.9 68 25
136 The Curse 01/13/2003 5.9 68 13
137 Doubt No More That Oberon 01/13/2003 5.6 66 13
138 The Blue-Flag In The Bog 01/13/2003 5.3 63 2
139 The Goose-Girl 01/13/2003 5.8 69 9
140 Dirge 01/13/2003 5.6 68 11
141 The Concert 01/13/2003 5.5 71 7
142 And You As Well Must Die, Belovèd Dust 01/01/2004 6.1 78 53
143 The Snow Storm 01/13/2003 5.8 75 7
144 The Spring And The Fall 01/13/2003 8.0 111 68
145 Chorus 01/13/2003 5.8 82 23
146 Thursday 01/01/2004 5.3 76 11
147 Bluebeard 01/01/2004 5.5 80 43
148 Ashes Of Life 01/13/2003 6.0 88 67
149 Ebb 01/13/2003 5.5 81 25
150 Being Young And Green 01/13/2003 5.6 86 33
151 Dirge Without Music 01/13/2003 6.5 101 68
152 Departure 01/13/2003 5.5 88 41
153 What Lips My Lips Have Kissed, And Where, And Why (Sonnet Xliii) 01/13/2003 7.9 127 384
154 Alms 01/13/2003 5.7 93 27
155 Counting-Out Rhyme 01/01/2004 6.1 99 23
156 Blight 01/13/2003 5.9 96 22
157 Daphne 01/13/2003 5.7 94 33
158 A Visit To The Asylum 01/13/2003 6.1 101 60
159 Burial 01/13/2003 5.4 90 30
160 An Ancient Gesture 01/13/2003 6.0 108 49
161 Afternoon On A Hill 01/04/2003 6.6 119 78
162 And Do You Think That Love Itself 01/13/2003 6.1 115 63
163 Apostrophe To Man 01/13/2003 5.9 119 32
164 [four Sonnets (1922)] 01/01/2004 5.3 107 30
165 Assault 01/13/2003 5.7 125 20
166 Autumn Daybreak 01/13/2003 5.7 132 44
167 City Trees 01/13/2003 5.8 135 59
168 Conscientious Objector 01/13/2003 5.5 180 73
169 Childhood Is The Kingdom Where Nobody Dies 11/28/2014 -- 0 1
170 The Courage That My Mother Had 01/03/2015 -- 0 1
171 She Is Overheard Singing 06/18/2015 -- 0 1
172 The Prisoner 07/30/2015 -- 0 0
173 I will put Chaos into fourteen lines 10/24/2015 -- 0 1
174 Inert Perfection 03/11/2016 -- 0 0
[Report Error]